Lid_Strength_Index
0 -0 -0 0 -0 -0 -0 -1 -1 -1 -1 -1 -1 -1 -1 -1 -1 -1 -1 -1 -0 -1 -1 -1 -1 -1 0 0 -0 -0 1 1 2 1 1 -0 -1 -1 -1 -2 -0 -2 -0
0 -0 0 -0 -0 0 -0 -1 -1 -1 -1 -1 -1 -1 -1 -1 -1 -0 -0 -0 -0 0 0 -1 -0 -0 -1 -1 0 -0 0 -0 1 2 0 0 -0 -1 -1 -1 -1 -1 -1
0 0 0 0 0 0 -0 -1 -1 -1 -1 -1 -1 -1 -0 -0 -0 -0 -1 -0 -0 0 0 -0 -0 -0 -0 -0 -0 0 1 1 1 2 1 0 -0 -0 -0 -1 -1 -1 2
1 1 1 0 0 0 -0 -1 -1 -1 -0 -1 -1 -1 -1 -1 -1 -1 -0 -0 -0 -0 -1 -0 -0 0 0 -0 -0 -0 0 1 1 1 2 1 1 -1 -0 1 1 0 0
1 1 1 -0 -1 -0 -0 -1 -1 -1 -1 -1 -0 -1 -1 -0 -0 -1 -0 -0 -0 -0 -1 -1 -1 0 1 1 0 0 -0 0 2 2 2 2 2 2 2 1 1 0 0
1 1 1 -0 0 0 -0 -0 0 -0 -1 -1 -0 -0 0 0 4 3 1 -0 -0 -0 0 -0 -1 -0 -0 1 1 1 1 0 1 2 2 2 1 1 1 1 1 1 2
1 2 1 1 1 1 1 0 1 0 0 0 -0 -0 -0 2 6 6 4 -0 0 -0 -0 0 0 -0 -0 -0 3 3 2 2 1 0 1 1 1 0 -0 1 1 1 1
1 1 1 1 1 1 1 1 1 1 1 1 1 0 0 4 7 7 5 1 -0 -0 -0 -0 0 0 1 -0 -0 0 0 1 1 -0 0 2 0 -1 -0 -1 0 -0 -1
2 2 1 1 1 1 1 1 1 1 3 3 3 4 4 2 7 7 4 0 0 0 -0 -0 -0 -0 4 3 0 1 3 5 5 5 5 5 4 4 2 -0 1 2 2
2 1 1 0 1 1 2 2 2 2 2 3 4 4 6 4 8 8 6 0 0 1 0 1 7 7 6 4 0 1 2 3 3 4 4 4 3 3 3 1 2 1 1
2 1 1 1 1 1 1 1 1 2 3 3 4 5 6 7 6 8 8 2 1 1 1 1 4 8 9 7 4 0 2 3 3 2 3 2 3 4 3 3 2 4 3
2 3 3 2 2 2 1 1 1 2 2 2 3 4 4 5 9 8 7 7 4 3 4 5 7 10 10 10 8 7 5 3 2 4 6 7 7 5 5 5 4 5 5
3 2 2 2 2 2 2 2 3 3 3 3 4 3 3 2 4 8 8 7 7 7 7 9 9 10 10 9 9 9 8 6 5 5 7 7 7 6 6 4 5 5 5
2 3 2 2 2 2 2 1 2 2 2 2 3 4 3 2 2 2 3 5 7 7 8 8 9 9 9 9 8 9 8 8 9 10 10 9 10 8 9 8 8 8 7
5 4 3 2 2 3 4 5 3 8 8 4 5 5 4 4 4 8 6 2 3 6 6 4 6 5 6 7 8 8 9 10 11 11 11 11 10 10 10 9 9 7 10
2 4 4 4 2 3 3 6 11 11 12 12 12 9 8 10 10 10 10 10 9 9 4 3 3 4 5 5 6 7 8 9 9 9 10 10 11 11 10 9 8 8 10
1 2 2 2 1 1 1 2 3 8 11 11 12 12 12 12 11 11 10 10 8 7 2 3 2 3 3 4 4 5 5 6 6 8 9 9 9 9 9 7 8 7 7
1 4 1 2 1 1 1 2 2 2 3 3 8 8 11 11 11 10 9 8 2 4 2 2 2 2 3 3 4 6 7 7 7 7 8 8 7 7 7 7 7 7 7
0 0 0 1 2 3 2 3 3 3 3 3 3 5 7 9 9 8 8 1 1 1 0 1 1 3 3 4 5 5 5 5 6 6 6 6 6 6 7 7 8 9 8
-0 1 1 0 2 1 1 2 2 1 1 1 2 2 2 3 2 1 1 1 2 2 1 2 2 2 2 2 3 3 4 5 4 5 5 5 7 6 6 7 7 7 7
0 0 1 0 -0 -0 -0 0 1 1 1 2 1 2 6 1 1 1 1 1 2 1 1 2 2 2 2 2 3 3 3 3 3 3 3 4 4 5 4 5 5 5 5
-0 0 0 0 -0 0 0 0 0 0 0 1 1 2 6 2 1 2 2 1 1 1 1 1 2 2 2 2 3 3 3 4 5 4 5 5 5 5 5 5 6 6 5
0 0 0 1 0 1 -0 0 0 0 0 0 0 1 2 1 1 1 1 1 0 0 0 0 1 1 1 1 1 2 2 3 3 3 4 5 5 5 4 4 5 5 5
0 0 0 1 1 1 1 0 0 2 1 0 0 0 0 0 0 -0 -1 -0 -0 -0 -0 0 0 1 0 0 1 1 1 2 2 3 3 3 3 5 3 3 3 3 3
0 0 0 1 1 1 1 0 0 0 0 0 0 0 0 -0 -0 -0 -0 -1 -0 -0 -0 -0 0 0 0 -0 0 1 6 9 2 4 1 2 2 2 2 2 2 2 2
0 1 1 1 1 1 1 1 1 0 1 0 0 -0 -0 -0 -1 -1 -1 -1 -1 -1 -1 -1 -0 -0 -0 -0 -1 5 10 10 4 8 1 0 1 1 1 1 2 2 2